Wind_Speed
47 46 45 45 44 43 42 42 41 39 38 37 35 34 33 32 31 30 28 27 26 26 26 26 24 22 22 22 22 22 21 21 20 18 18 17 17 16 15 15 15 13 13 13 12 12 12 13 14 14 14 13 12 11 10 11 11 12 11 9 9 10 10 10 12 13 11 10 12 13 13 14 15 16 17 18 19 20 22 23 24 24 24 24 23
47 47 46 45 44 43 43 42 41 40 39 37 36 35 34 33 32 30 28 27 27 27 28 28 27 24 23 23 22 22 22 22 21 20 19 18 18 17 17 17 16 15 14 14 14 13 13 14 14 14 14 14 13 12 12 10 9 11 12 12 11 11 11 11 13 15 16 15 15 16 16 17 18 18 18 19 20 20 20 21 22 22 22 22 22
46 46 45 45 45 44 43 42 41 41 40 38 37 36 35 33 32 31 29 28 28 28 28 29 28 27 25 24 23 23 23 23 22 22 21 20 19 18 19 19 18 17 15 15 15 15 15 15 14 13 13 14 14 13 13 12 11 11 12 12 12 12 11 12 14 16 19 19 19 19 19 20 20 20 20 20 19 19 19 20 20 20 19 18 19
43 45 46 45 45 44 43 42 42 41 40 40 38 36 35 33 32 32 30 29 29 29 29 29 29 28 27 26 25 25 25 24 23 23 22 21 20 19 19 19 20 19 17 17 16 16 16 16 15 15 15 15 15 14 14 13 13 14 14 14 14 14 13 14 15 17 20 21 21 20 21 22 22 21 21 21 21 21 20 21 21 19 17 17 18
41 44 45 45 45 45 44 43 43 42 41 41 39 36 34 33 32 32 31 30 30 30 31 30 29 29 28 28 27 26 27 27 25 24 23 22 21 20 20 20 20 20 19 18 18 18 18 17 17 17 17 17 17 16 16 15 14 14 15 15 15 15 15 14 15 16 18 20 21 21 21 22 23 22 21 21 22 22 21 21 20 19 18 19 20
40 42 44 45 45 46 45 45 44 43 42 41 39 37 34 32 32 32 32 32 30 30 31 31 30 30 30 29 29 28 28 28 28 26 25 24 23 21 21 21 21 21 20 19 19 19 19 18 18 18 18 18 18 18 17 16 15 15 16 16 15 14 15 15 15 17 18 19 21 22 22 23 23 22 21 20 21 22 22 21 20 19 20 21 21
39 41 42 44 45 46 47 46 44 44 43 40 39 37 35 33 32 32 33 33 32 30 30 31 32 31 31 30 30 30 30 30 30 28 27 26 25 23 23 23 23 23 22 21 20 20 20 19 18 19 19 19 18 18 18 17 17 16 16 16 15 16 16 16 16 17 18 20 21 22 23 23 23 23 22 21 20 20 20 21 21 21 21 21 22
40 41 41 42 44 46 46 45 44 43 42 41 38 36 35 34 33 32 33 33 33 31 30 31 31 31 32 31 31 31 31 31 31 30 28 28 27 25 24 24 23 23 23 23 22 22 21 20 19 19 20 20 19 19 18 18 18 17 17 17 17 17 17 17 17 18 18 20 21 22 23 24 24 24 23 20 18 18 19 21 23 23 22 23 24
41 42 42 42 43 45 44 44 44 42 41 41 39 37 36 35 34 33 33 33 33 32 31 30 30 31 32 32 31 32 32 33 32 31 30 29 28 27 26 25 24 24 23 22 22 22 22 21 20 19 20 20 19 19 18 18 19 19 19 18 17 17 18 19 19 20 20 21 22 23 24 26 26 24 21 18 18 19 20 20 22 24 25 26 27
41 43 43 43 43 43 43 43 43 42 42 41 40 39 37 35 35 34 34 34 33 33 32 31 30 31 31 32 32 32 33 34 33 32 30 29 29 29 28 27 26 25 24 23 23 22 22 22 21 20 20 20 20 19 19 19 19 19 19 18 18 18 19 20 21 22 22 22 23 23 24 27 27 23 20 19 19 20 19 20 24 27 28 29 29
42 43 43 42 41 42 43 43 42 42 43 42 41 41 38 36 36 35 35 35 33 33 34 33 31 30 31 31 32 33 34 34 33 32 31 29 28 29 29 29 27 27 26 26 25 24 23 22 22 21 21 22 22 21 22 22 20 19 18 18 19 20 21 22 23 24 24 25 25 24 25 27 27 24 23 22 21 20 20 23 27 29 28 28 29
41 42 41 40 40 41 42 43 43 43 43 43 43 42 40 38 37 36 36 36 35 34 34 35 33 31 30 31 31 31 33 33 33 32 30 29 28 28 29 29 29 29 28 27 27 25 24 23 23 22 22 23 23 24 25 24 22 20 18 19 20 21 22 23 24 25 26 26 27 27 27 28 28 27 27 26 24 24 26 29 29 27 26 27 29
39 41 41 40 40 41 42 43 43 43 44 44 43 43 42 41 39 38 37 37 36 35 34 35 35 33 31 30 31 30 30 32 32 32 30 28 27 27 28 29 30 30 29 29 28 27 26 24 24 23 23 22 22 23 24 24 22 20 20 21 21 22 23 24 25 26 26 27 29 29 28 28 29 28 27 27 27 28 29 28 25 24 25 27 30
38 41 41 40 40 41 42 43 44 44 44 44 43 43 43 43 41 39 38 37 37 36 35 35 36 36 33 31 31 31 29 30 31 31 30 28 27 27 27 28 29 30 30 29 28 28 27 26 25 24 23 23 23 23 23 23 22 22 22 23 23 24 25 25 25 26 27 28 29 29 27 25 25 25 23 23 25 25 25 23 22 23 25 27 29
37 40 41 41 41 41 42 44 44 44 44 44 44 44 44 44 42 40 38 37 37 37 36 35 35 36 36 33 32 31 30 29 29 30 30 29 28 28 28 28 29 29 28 27 27 27 26 26 25 24 24 24 24 25 25 25 25 25 25 25 26 26 26 26 26 26 26 26 27 26 23 21 20 19 18 19 20 20 19 19 20 23 25 26 27
37 39 42 42 42 43 44 44 45 45 45 45 45 45 44 44 44 41 38 36 36 37 37 36 35 36 37 36 34 31 30 29 29 29 29 28 27 27 27 28 29 29 28 26 26 27 26 26 26 26 25 24 24 24 25 26 26 27 28 28 28 28 28 27 27 27 27 26 26 26 24 20 18 16 16 17 17 17 17 18 20 21 23 25 26
39 41 43 44 44 44 44 45 45 45 45 45 46 45 45 45 44 43 40 36 34 36 37 37 36 35 36 37 36 34 31 30 29 29 29 28 26 26 26 27 29 30 30 29 28 27 28 28 28 28 28 27 26 26 26 26 27 28 29 29 29 29 29 28 27 27 28 28 28 27 24 19 17 17 18 17 17 16 17 19 20 20 21 23 25
41 43 44 45 45 44 45 45 46 46 46 46 47 46 45 45 45 44 43 38 34 33 35 36 35 35 35 35 36 36 34 32 31 31 30 29 28 27 27 27 28 30 31 32 32 31 31 31 31 31 31 30 29 28 28 28 29 29 30 30 30 30 30 29 28 28 28 28 26 24 22 20 19 20 20 18 17 16 17 19 18 18 18 20 22
44 46 45 45 44 44 44 44 45 46 46 46 47 47 46 45 44 44 44 41 35 31 31 33 33 33 34 33 34 35 35 35 34 34 33 32 31 30 29 29 29 30 30 32 34 34 35 35 34 34 34 33 32 31 31 31 31 31 30 30 31 32 32 30 28 27 25 25 24 23 23 22 21 22 21 19 17 16 17 19 17 16 17 18 20
45 45 45 44 43 43 44 44 45 45 45 45 47 47 46 45 45 44 44 43 39 34 31 30 31 31 31 32 33 34 35 35 35 35 35 34 33 32 32 32 31 31 31 31 32 33 35 36 36 36 36 34 34 34 34 34 34 33 32 32 33 33 31 27 24 22 22 24 25 25 25 23 23 23 23 20 18 18 19 20 18 16 17 19 19
42 42 43 43 43 43 43 43 44 43 40 41 44 46 44 44 44 44 44 43 42 38 34 31 29 29 30 30 31 32 34 34 35 35 35 35 34 33 33 33 32 31 31 31 31 32 33 35 36 37 36 36 36 36 36 36 35 35 35 34 33 32 30 27 24 23 23 25 25 25 25 24 24 24 22 20 19 19 21 21 19 18 18 19 20
40 41 42 42 42 42 42 41 42 40 36 37 42 44 43 43 42 42 43 43 42 41 38 34 31 29 29 29 29 30 30 31 32 33 33 34 33 33 34 33 32 31 31 31 31 31 32 33 34 34 35 35 35 35 35 34 34 34 33 32 31 31 31 30 29 28 28 28 28 28 28 27 27 26 24 22 21 20 21 21 21 19 19 20 21
39 40 41 41 41 41 40 39 40 38 36 38 42 43 42 41 41 41 42 41 41 41 40 38 34 31 30 29 28 28 28 29 30 30 30 30 31 32 32 32 31 30 30 31 31 30 31 31 31 31 32 32 31 31 31 31 30 30 29 28 28 28 29 31 31 32 32 32 32 32 32 32 31 29 28 27 25 23 22 21 21 20 21 22 23
38 39 41 41 41 40 38 38 38 36 37 39 41 41 42 41 40 40 41 41 40 40 40 39 38 35 32 30 29 29 28 28 30 30 28 28 28 29 29 29 30 30 30 30 30 29 28 28 27 27 28 28 28 29 29 28 28 27 27 26 27 28 29 31 32 33 34 34 35 35 35 35 34 33 32 30 27 25 23 21 21 23 24 25 25
37 39 41 41 41 40 38 37 36 35 37 40 41 41 42 41 40 40 40 40 39 39 39 39 40 39 37 34 32 30 29 29 30 31 30 29 29 29 29 29 29 29 30 30 29 28 27 25 25 25 25 25 25 25 26 26 26 26 25 25 25 27 29 31 32 33 34 35 35 34 34 34 33 32 30 27 25 24 23 21 23 25 25 25 23
37 39 40 40 40 39 37 36 36 36 37 38 39 41 42 42 41 40 39 39 39 39 39 39 39 39 39 37 34 32 30 29 30 31 31 30 29 28 27 27 27 27 28 28 28 30 30 28 26 26 25 25 26 26 26 26 25 25 25 25 25 26 27 29 31 32 33 33 32 31 30 30 28 27 24 23 23 23 21 21 23 24 23 20 18
37 39 40 40 40 39 38 37 37 37 37 36 36 39 41 41 41 41 40 40 39 38 38 39 38 39 39 38 36 33 31 30 30 31 31 30 29 27 26 25 24 24 25 26 27 30 31 30 30 30 28 27 27 27 27 27 26 27 27 27 28 27 27 28 29 30 30 30 29 28 28 25 23 22 21 21 22 21 20 22 23 21 18 16 14
36 39 39 39 38 39 39 39 38 37 37 36 33 34 37 40 41 42 42 41 41 40 40 39 39 38 38 38 37 35 34 33 32 32 33 32 31 29 28 26 25 24 23 22 23 25 28 30 31 32 31 31 30 30 30 30 30 31 31 30 29 29 29 30 29 29 28 27 25 25 25 23 22 21 21 21 21 21 22 23 21 17 14 13 13
36 38 39 38 37 38 39 40 39 38 37 37 35 33 34 38 40 40 41 41 41 40 39 39 38 36 35 35 35 35 36 36 35 33 33 32 31 30 28 26 25 24 22 20 20 21 24 29 31 31 32 32 32 32 33 33 34 34 33 32 31 30 30 30 29 29 28 25 24 25 25 24 23 23 23 23 23 22 21 20 17 15 13 13 13
35 37 38 38 38 38 39 41 41 39 37 38 39 38 36 37 37 37 38 38 38 37 36 36 36 34 32 31 32 34 35 34 33 32 31 31 30 27 24 21 21 20 20 21 22 22 23 27 30 31 31 31 32 33 33 33 34 32 30 29 27 23 22 22 22 23 24 24 25 25 25 26 25 24 24 24 21 18 17 17 15 14 13 13 11
37 38 39 39 39 40 41 41 41 40 38 39 42 41 39 38 37 36 36 35 35 34 34 33 32 31 30 30 30 30 30 28 27 26 27 28 27 25 22 20 19 19 19 21 24 26 26 27 29 31 32 32 32 31 30 29 28 25 25 26 25 20 18 18 18 19 20 22 23 23 24 25 23 20 19 19 15 12 12 14 15 15 12 10 8
37 38 39 39 39 40 41 41 40 39 38 40 43 42 41 40 38 36 34 32 32 32 32 31 30 29 29 30 30 28 27 26 25 24 24 25 25 25 23 21 20 19 19 21 24 26 26 28 29 31 32 33 32 30 27 24 21 20 22 26 27 24 22 21 21 21 22 20 20 21 21 21 18 14 12 11 11 11 11 15 16 14 10 9 9
35 36 38 39 40 41 41 40 40 39 38 40 43 43 42 41 40 38 35 32 30 30 31 31 30 29 29 29 29 27 26 25 25 24 23 22 22 22 22 21 20 20 20 21 22 23 24 26 29 29 30 30 29 27 23 21 20 20 23 25 27 26 26 24 23 24 23 22 21 20 17 15 14 13 12 11 11 12 15 17 16 12 11 11 10
34 35 35 36 39 42 41 40 40 39 37 37 41 42 41 40 39 38 37 35 33 32 32 32 32 31 30 29 29 28 26 25 25 25 23 21 20 20 20 20 20 21 22 22 23 22 22 25 27 27 26 25 24 22 20 20 21 24 25 25 26 27 28 27 26 24 23 24 24 20 14 12 12 13 12 12 13 13 14 13 12 12 12 10 8
32 33 31 28 30 35 36 36 39 40 35 32 34 36 37 38 39 38 37 36 35 33 33 33 33 32 30 29 28 28 26 24 23 23 22 21 19 19 20 21 22 23 24 23 23 24 23 23 24 24 24 23 23 23 23 23 23 25 26 26 27 28 29 28 27 24 23 24 25 20 13 11 12 13 13 12 12 12 13 13 11 12 11 9 9
27 32 29 24 24 30 31 31 38 43 37 31 30 29 28 31 34 36 35 34 33 32 32 33 32 32 31 30 28 27 25 24 23 22 22 21 21 21 21 22 23 24 24 23 24 25 26 25 23 22 23 25 26 26 26 26 25 26 27 27 28 28 28 28 27 24 20 20 21 18 14 12 12 12 13 11 10 12 13 11 10 12 12 11 12
19 26 25 20 22 29 29 28 34 38 35 30 28 26 23 22 23 26 29 30 31 31 31 30 30 30 30 31 30 29 27 25 24 24 23 23 23 23 23 23 24 24 24 24 25 27 27 26 25 25 25 26 28 28 28 28 27 27 28 27 27 27 27 27 25 20 16 16 17 16 16 16 13 11 11 12 12 12 11 10 11 12 12 13 14
9 15 20 20 21 22 22 24 28 31 29 27 26 26 25 21 16 17 23 28 30 29 27 27 28 29 30 31 30 30 29 27 26 26 25 25 26 26 26 26 26 25 25 25 27 28 27 27 27 28 28 28 29 29 28 28 28 29 28 27 26 26 25 23 20 17 14 13 13 12 12 13 13 12 12 13 12 12 13 12 11 12 12 12 12
12 11 15 21 22 20 19 21 25 27 27 26 24 24 24 21 18 19 23 25 25 24 24 24 26 28 29 30 29 29 29 28 27 26 26 25 26 26 26 26 25 25 25 25 26 27 28 28 28 28 27 26 25 26 27 28 28 27 25 24 24 23 21 18 16 13 10 9 10 8 7 7 8 9 10 9 9 11 13 13 12 12 12 12 11
15 14 18 22 23 24 24 24 24 25 27 27 25 24 25 25 24 24 24 23 22 22 22 22 22 22 23 25 26 27 28 27 27 26 25 24 25 25 25 25 25 25 25 25 25 25 25 26 26 25 24 22 21 20 20 21 22 21 20 19 19 18 16 12 10 7 4 6 7 7 7 6 5 6 7 8 10 12 13 15 15 13 12 11 12
20 15 14 18 22 25 28 28 26 25 26 27 27 27 27 28 26 23 20 20 20 19 18 17 15 14 13 14 18 22 23 24 24 24 24 24 25 25 24 23 24 24 23 23 22 20 19 19 18 17 17 16 15 13 12 12 13 13 12 11 10 9 7 5 3 3 4 4 5 6 6 5 4 5 7 9 10 10 9 10 11 11 11 12 13
20 20 18 17 18 21 26 26 25 24 23 23 24 24 23 23 21 18 16 15 14 14 14 13 12 10 11 15 19 20 21 22 23 24 23 23 23 23 22 21 20 19 18 16 15 13 12 12 12 12 12 12 10 10 9 8 6 5 6 9 10 9 7 5 5 6 8 7 5 5 5 6 7 8 9 9 9 8 6 7 8 9 10 11 12
20 20 21 22 23 23 23 22 20 19 19 19 19 18 18 18 17 15 14 14 13 14 14 13 12 15 20 22 21 19 19 20 20 20 21 21 21 20 20 18 17 16 15 14 13 12 12 11 12 12 13 13 13 13 12 12 13 12 11 13 14 14 13 13 11 9 9 10 9 7 5 5 5 5 5 4 5 5 6 6 7 8 9 10 11
21 20 20 20 22 23 23 21 18 16 14 14 15 15 15 16 17 16 15 15 16 16 16 16 18 23 26 24 21 20 21 22 21 19 19 20 20 19 18 17 16 15 14 14 14 13 12 12 12 13 13 14 13 13 13 14 15 14 13 14 16 16 16 15 14 11 11 13 14 12 7 3 3 3 4 4 5 6 6 6 7 7 8 9 9
21 21 20 20 21 21 22 20 18 16 13 12 12 12 11 13 15 16 17 18 18 19 19 21 24 26 26 25 24 24 25 24 21 19 19 20 20 20 19 18 17 16 15 15 14 13 12 12 13 15 15 15 14 14 14 15 15 13 11 13 16 17 15 14 13 13 12 13 14 12 9 7 7 6 3 3 4 5 6 6 7 9 9 8 9
19 19 19 20 20 20 20 19 18 17 15 14 14 14 13 13 14 17 18 19 19 20 21 23 24 25 24 22 22 21 21 19 16 15 16 19 20 19 18 17 16 15 14 13 12 11 10 11 13 14 14 13 13 14 15 16 16 14 12 13 16 17 15 13 13 12 11 10 11 10 8 8 8 6 1 3 4 4 5 7 8 9 10 10 9
18 18 18 17 18 19 19 18 18 18 17 16 15 15 15 15 16 18 18 18 19 19 20 21 22 22 21 19 18 15 13 13 13 14 15 16 17 17 15 13 13 13 12 12 11 11 11 12 12 12 12 11 12 14 15 15 15 13 11 11 13 15 14 12 10 9 8 8 8 8 7 6 5 3 3 5 5 4 5 6 6 6 8 8 8
14 16 16 15 15 17 17 16 16 16 16 15 14 15 15 15 15 16 16 16 17 16 16 16 16 16 14 14 14 13 12 13 14 16 17 17 17 16 15 14 13 13 14 14 14 14 13 13 12 11 11 11 12 11 11 11 11 10 10 9 10 11 10 8 7 7 7 7 8 8 8 8 7 6 6 7 7 6 7 8 9 9 9 9 9
11 13 14 14 14 15 16 16 15 14 13 12 12 13 13 13 13 13 14 15 16 16 15 15 15 15 14 15 16 18 19 19 19 19 18 17 16 16 15 15 15 14 14 14 14 13 12 11 10 10 10 11 10 9 8 8 8 8 8 8 8 8 8 7 7 7 7 7 8 9 10 10 10 10 9 9 9 10 11 11 12 12 13 13 13
8 9 11 12 13 14 14 15 14 13 12 11 11 11 10 11 12 12 12 13 14 15 15 15 15 17 18 19 19 20 21 21 21 20 20 19 18 17 16 15 14 14 13 13 12 11 10 9 9 9 9 9 9 8 7 7 7 7 7 7 6 6 7 6 6 6 7 8 8 9 9 10 10 11 11 10 11 12 13 13 14 15 15 15 16
7 9 10 11 12 13 13 13 13 12 11 11 11 9 8 8 9 10 10 11 12 14 15 15 16 18 19 19 19 20 20 20 20 19 19 19 19 18 17 15 15 14 13 11 10 10 9 9 8 8 8 7 7 7 6 6 6 5 4 4 4 4 4 4 5 5 6 7 7 8 9 9 10 11 12 12 13 13 14 14 14 15 15 15 15
Wind_Direction
213 213 214 216 217 219 219 219 220 221 221 221 223 225 224 223 226 226 224 226 224 217 216 220 223 225 223 221 224 225 225 227 228 228 226 225 225 224 224 226 228 225 223 225 223 223 230 229 223 226 232 236 241 241 237 245 264 282 291 289 284 286 285 283 291 299 305 310 312 316 319 315 314 315 312 312 312 311 310 310 312 313 315 317 317
213 213 213 214 216 218 219 220 219 219 220 220 221 224 224 224 225 224 219 220 222 218 217 219 221 224 223 220 222 224 226 229 228 229 229 226 227 227 224 227 232 230 226 227 229 228 234 238 236 235 241 245 246 248 250 249 255 273 288 296 298 298 294 289 291 296 304 312 315 318 322 321 319 321 318 313 311 310 308 309 314 317 318 318 320
212 212 212 212 214 216 218 219 219 219 220 221 222 223 224 225 223 220 215 214 217 217 218 219 220 223 224 221 220 220 224 229 229 229 231 229 227 229 229 230 234 235 231 230 232 234 236 241 243 241 242 246 247 247 249 245 238 243 255 268 281 288 289 289 289 291 296 304 311 315 319 319 318 318 318 317 319 320 319 323 328 328 326 326 327
208 211 211 211 213 214 216 218 219 219 220 221 222 222 223 224 223 219 214 212 213 215 217 220 221 223 224 223 221 218 219 227 231 230 232 232 229 230 233 235 237 239 237 233 233 235 236 240 247 249 247 247 248 249 250 249 245 242 241 243 250 257 262 267 274 281 288 297 307 313 316 317 318 319 323 326 329 329 328 330 332 331 330 331 330
203 209 211 210 211 214 216 216 218 219 218 220 221 219 218 220 222 220 215 211 211 213 215 217 220 223 223 223 222 220 219 224 230 231 232 235 234 232 233 237 240 243 243 240 238 238 240 244 248 249 248 246 246 249 252 256 256 253 251 252 254 259 264 268 275 282 288 296 306 312 314 315 318 321 326 328 329 328 327 327 329 329 330 331 329
199 205 210 210 210 213 216 216 218 220 218 217 218 217 213 213 218 220 216 210 208 211 214 216 218 222 224 223 222 223 222 223 228 231 231 233 236 236 235 237 241 244 246 246 245 243 245 249 249 247 247 247 245 246 249 254 256 255 255 259 263 267 269 275 282 288 293 298 305 309 312 315 318 320 323 323 321 321 323 324 327 329 328 326 324
199 202 207 209 208 212 216 217 217 218 217 214 213 214 210 208 212 217 217 212 207 208 214 217 218 221 225 225 223 224 225 225 227 231 230 230 234 238 239 238 241 244 247 249 250 250 250 251 250 247 247 250 249 246 246 249 252 254 256 259 264 268 270 275 281 285 291 296 301 304 308 312 312 312 316 318 316 320 323 322 321 323 323 321 318
200 202 203 205 206 210 215 216 215 215 215 212 209 210 209 206 208 213 214 212 207 205 211 219 220 220 224 227 226 225 226 226 227 230 231 228 230 237 241 242 243 245 247 248 249 250 251 250 251 251 249 250 250 249 247 246 248 253 257 259 261 267 274 279 281 283 285 288 293 297 301 304 306 308 315 319 318 319 319 316 313 315 316 314 312
201 203 203 203 206 208 210 211 211 211 212 211 208 208 208 206 206 210 213 212 208 205 207 216 220 219 221 226 227 225 226 228 229 231 232 230 228 233 240 243 244 245 247 247 247 248 246 242 242 248 252 253 252 252 252 250 247 249 254 259 264 268 273 277 281 283 283 284 288 293 297 301 305 308 312 312 309 309 311 309 305 307 310 308 306
202 204 205 205 206 207 207 207 208 209 210 210 208 206 207 206 204 208 213 213 209 206 205 211 218 220 220 223 224 223 225 230 233 234 236 235 232 232 237 243 245 244 245 246 247 247 245 241 237 239 247 256 259 259 259 258 254 251 253 258 265 269 274 278 282 284 284 285 288 291 294 298 303 304 302 299 299 302 303 297 296 303 309 307 307
204 205 206 206 205 206 206 205 206 206 208 209 208 205 205 205 204 206 212 215 212 208 205 207 213 219 220 222 225 225 226 232 237 237 237 238 237 235 237 241 245 245 243 243 246 247 245 243 241 239 239 245 252 257 259 261 262 259 256 259 264 270 275 278 282 284 284 284 286 288 288 293 298 298 294 293 294 293 290 290 296 304 307 305 306
204 206 206 206 205 206 206 205 205 206 207 208 209 206 204 205 205 204 209 215 215 210 207 206 209 214 218 220 224 229 231 234 238 240 239 239 239 238 237 238 241 244 244 243 245 248 247 244 242 241 240 240 243 247 253 260 264 262 259 261 265 270 274 278 281 283 283 282 283 283 284 287 289 291 293 293 291 289 290 294 300 303 302 301 304
203 205 206 206 206 207 207 205 205 206 207 208 209 208 205 204 205 205 207 213 215 213 210 209 208 210 215 219 222 227 233 235 237 239 240 240 239 238 238 238 238 241 244 245 245 247 250 249 244 241 241 242 245 249 254 260 264 263 261 263 266 270 275 279 282 282 283 282 281 283 286 286 285 288 294 294 292 293 296 299 301 300 299 301 304
203 205 206 206 207 207 208 207 206 207 208 208 209 209 207 205 205 206 206 210 214 214 212 212 211 211 213 218 222 225 230 236 238 238 239 240 240 240 239 239 238 239 242 245 246 247 250 253 252 247 244 242 244 249 256 262 266 267 267 269 271 274 277 280 282 283 283 282 282 286 290 289 287 290 293 292 292 296 298 300 301 298 299 304 306
204 205 205 206 207 208 208 208 208 208 208 208 208 209 209 207 206 206 206 208 213 215 214 213 214 214 213 216 222 226 228 233 238 240 240 240 240 241 240 238 237 237 238 241 245 248 250 252 253 253 251 249 247 248 253 260 265 270 272 274 276 278 279 279 281 283 284 284 285 289 293 294 292 292 290 289 291 294 296 297 298 299 303 307 308
205 205 205 206 207 208 209 208 208 208 208 208 209 210 210 208 206 206 205 207 211 215 216 215 215 216 216 216 219 224 226 228 234 241 245 244 241 240 240 238 236 234 233 236 240 244 248 250 252 254 255 255 255 255 255 257 261 266 271 276 278 280 281 282 284 286 288 290 291 293 298 300 297 290 288 289 291 291 291 292 296 303 308 308 309
206 206 206 207 208 209 209 209 208 207 207 208 209 210 210 209 208 206 205 205 208 213 216 217 216 218 219 219 219 221 224 226 230 236 243 246 244 242 241 240 238 235 232 233 234 236 240 245 249 253 257 258 260 261 260 260 261 264 268 272 275 277 280 283 285 287 289 290 291 293 296 295 290 286 286 289 291 289 285 287 297 305 304 303 308
207 209 208 208 209 209 209 208 208 207 208 209 210 211 211 210 209 207 207 206 206 210 215 218 219 220 221 223 223 223 225 227 229 233 238 242 244 245 244 243 242 239 237 236 236 236 238 242 246 250 255 259 262 263 264 263 263 265 267 268 268 269 273 276 277 279 283 284 285 285 285 281 280 283 284 285 287 285 282 288 298 300 296 299 306
208 211 210 208 208 208 208 208 208 208 209 209 209 211 212 211 211 210 210 209 207 209 214 218 220 221 222 223 226 228 229 229 232 235 237 239 242 245 247 247 247 247 245 243 242 243 244 247 250 252 255 259 261 264 266 266 267 268 268 267 267 269 272 273 274 275 276 276 276 276 275 274 276 278 278 277 278 279 283 291 295 291 291 298 301
209 210 210 208 207 207 208 209 209 209 210 210 211 212 213 213 213 213 212 212 210 210 213 217 220 221 222 223 227 231 233 234 236 239 241 243 245 246 248 250 252 253 254 253 251 250 250 251 253 255 258 261 262 264 266 267 269 270 269 267 269 273 273 272 271 269 266 266 269 270 271 272 272 273 275 277 279 282 289 294 292 285 285 290 292
208 209 209 208 207 207 208 209 210 210 210 210 211 212 212 213 213 213 213 213 213 212 212 215 218 221 222 223 224 229 235 238 239 241 243 246 248 248 249 252 255 257 258 259 258 257 256 256 256 257 259 261 263 264 266 268 269 270 269 270 271 272 271 266 262 259 257 258 261 263 267 269 269 271 274 277 280 285 290 291 286 277 275 279 285
207 208 209 208 207 207 209 210 210 209 207 208 210 210 210 211 212 213 213 214 215 214 213 214 216 220 223 225 225 227 232 238 242 243 244 246 247 248 249 253 257 258 257 258 259 259 259 260 260 261 262 262 263 264 265 266 267 267 268 270 270 269 269 267 262 258 255 254 254 254 257 259 261 264 265 264 269 277 279 277 273 268 267 276 286
208 208 209 208 207 207 208 208 208 207 206 208 208 208 209 209 209 212 213 213 214 215 215 215 215 218 223 226 228 228 229 233 241 245 245 245 246 247 250 252 255 255 255 255 257 259 260 260 261 262 263 264 264 265 266 265 265 266 267 267 267 267 266 265 262 259 255 253 252 253 254 255 256 258 259 261 270 277 274 266 263 263 268 277 284
208 208 209 208 207 207 207 207 208 206 206 208 208 207 208 207 207 210 212 212 214 215 216 216 216 217 220 223 227 230 229 231 236 241 243 245 246 247 248 249 250 251 252 252 253 255 256 257 258 258 260 262 264 265 265 265 265 265 265 265 265 264 263 262 260 258 255 254 253 254 255 257 257 259 262 268 274 275 269 260 256 259 266 274 279
207 207 209 208 207 206 206 207 208 206 206 208 208 207 207 206 206 208 210 211 213 214 215 217 217 218 220 222 225 228 229 230 233 237 239 243 246 248 249 249 249 249 249 249 248 246 245 247 250 251 252 254 257 258 260 262 264 265 265 265 264 263 263 264 262 259 258 258 259 259 259 260 262 265 268 269 268 266 263 260 258 261 267 273 279
207 208 208 208 206 206 205 206 207 207 207 209 209 207 206 206 206 207 209 210 212 213 215 217 218 220 221 222 224 225 226 229 233 237 239 242 245 247 247 247 247 247 248 248 245 243 240 238 239 242 245 247 249 252 255 258 261 262 262 263 264 267 269 268 265 262 261 262 264 265 265 265 267 270 268 263 260 259 258 259 262 266 271 276 282
208 208 207 207 206 206 205 205 206 206 205 206 207 206 206 206 206 207 208 209 210 212 214 216 218 219 220 221 221 223 224 226 230 235 238 241 243 243 243 244 244 243 242 241 241 243 243 239 236 237 239 242 245 248 251 254 256 258 260 263 265 269 272 271 268 265 264 265 266 267 267 268 268 267 263 259 256 253 254 261 267 270 274 280 286
210 209 208 207 207 207 206 205 204 203 202 202 201 201 203 206 207 208 210 211 211 211 213 215 217 218 220 221 221 222 223 225 228 233 237 238 240 241 242 242 241 238 238 239 240 243 244 243 241 240 239 241 244 247 250 253 255 257 260 262 264 269 272 271 267 264 263 263 264 263 262 262 262 261 259 256 252 251 257 266 271 273 279 284 286
211 209 207 207 207 207 206 204 203 200 199 199 198 197 200 204 207 210 213 215 214 213 214 215 217 218 219 221 221 222 224 226 228 231 236 238 240 242 244 244 242 240 240 242 245 244 242 241 241 242 243 245 246 248 250 253 256 258 261 262 265 270 272 268 263 261 262 261 259 257 257 258 259 257 254 253 253 256 261 266 271 279 283 282 281
211 208 207 207 207 207 205 204 203 199 196 196 197 197 197 199 204 208 211 212 212 213 215 217 218 218 217 219 223 225 228 232 233 233 236 239 241 243 244 243 243 242 240 239 241 242 241 239 239 242 245 247 248 249 249 252 255 259 262 264 266 270 271 267 262 260 260 259 258 259 259 257 254 250 249 251 253 253 255 260 267 274 276 274 277
209 207 208 208 208 207 205 203 202 198 195 196 197 197 195 195 198 204 208 210 210 212 215 217 219 219 218 220 224 228 231 234 236 235 234 234 236 239 240 238 238 237 231 228 232 236 238 237 237 239 242 245 247 248 249 251 253 253 253 256 260 261 262 263 261 258 258 261 263 260 256 252 250 248 249 252 246 235 243 260 270 275 275 273 272
207 208 210 210 208 207 205 203 199 196 195 198 198 197 196 194 193 196 202 206 208 209 212 215 217 217 218 220 224 226 226 226 228 229 230 230 233 237 238 238 239 237 227 220 224 232 237 238 238 239 241 242 244 245 247 249 248 244 242 247 252 252 251 254 257 256 257 259 260 255 251 248 244 236 229 228 223 224 248 264 269 275 276 264 258
204 207 211 212 210 206 204 202 198 194 196 200 199 197 196 195 194 194 195 199 203 207 209 211 211 211 213 216 219 221 222 224 226 228 229 231 234 234 233 234 237 237 231 225 229 237 241 241 241 241 241 243 243 243 245 244 240 237 239 244 248 248 247 250 255 255 252 249 248 247 246 242 232 219 213 221 238 259 271 268 259 253 250 250 258
207 207 212 217 214 208 203 200 197 195 197 200 199 199 198 196 195 196 196 196 199 202 205 207 208 208 209 213 215 218 221 225 228 230 232 233 234 231 228 227 228 231 233 236 242 248 249 247 244 241 240 244 245 242 240 238 234 233 237 242 245 246 246 250 254 252 247 243 242 239 232 223 216 216 226 243 258 268 268 258 247 241 244 253 261
211 211 218 224 217 206 202 200 196 194 194 192 192 196 199 198 199 200 199 199 200 201 203 205 207 208 210 213 215 219 221 223 226 229 230 232 232 230 229 228 227 230 234 238 244 248 247 247 246 242 239 242 243 240 236 235 234 235 239 243 245 244 244 247 250 247 243 242 239 233 224 214 215 227 245 259 262 256 248 243 242 243 246 259 262
217 215 223 233 219 206 206 206 199 196 193 188 187 191 196 197 199 200 200 201 202 203 205 206 207 209 212 215 218 220 220 220 220 221 223 225 226 228 230 233 235 239 241 242 244 245 243 242 242 240 237 238 240 241 239 235 235 238 240 240 240 239 239 240 240 241 243 243 236 225 215 213 226 247 258 254 243 242 246 251 251 243 237 245 255
215 211 217 222 210 205 210 211 202 196 191 186 185 190 192 191 195 199 201 203 206 209 209 209 209 211 214 216 219 222 223 223 222 222 224 226 227 231 236 238 239 242 244 244 243 243 241 240 240 238 237 237 240 242 240 236 236 238 237 236 235 234 235 236 236 239 245 243 233 225 221 228 245 260 249 229 221 228 236 247 255 251 243 245 253
172 197 206 203 196 201 212 212 201 194 189 181 179 182 183 183 189 197 200 203 207 210 213 214 215 216 217 218 219 222 226 228 228 227 228 231 233 237 240 240 238 238 238 239 240 240 240 240 240 238 237 238 240 242 241 239 237 236 235 234 233 232 233 235 236 240 243 234 225 226 233 244 258 258 239 229 234 235 229 231 246 257 256 256 263
100 135 174 186 190 195 200 196 191 187 182 176 173 172 172 175 188 199 198 197 198 202 208 213 216 220 221 220 220 221 224 227 229 231 233 235 235 235 235 232 229 229 230 232 235 237 237 238 238 237 236 236 237 238 238 238 237 235 233 233 234 235 235 234 236 240 235 206 192 207 236 251 252 240 223 220 231 235 232 234 243 250 251 255 265
63 99 137 158 173 182 183 179 174 172 169 165 162 161 160 165 178 190 191 188 189 194 200 206 213 223 228 225 223 223 225 228 232 233 231 228 225 224 223 221 220 220 222 225 227 230 233 235 236 236 235 234 231 229 228 229 231 231 231 235 237 234 228 225 231 237 207 166 181 218 240 239 227 217 209 211 221 227 232 238 241 239 242 251 260
39 55 100 129 145 158 165 163 158 157 159 159 160 161 161 163 171 180 183 185 190 195 200 208 221 235 233 217 212 216 219 220 219 216 211 208 209 210 210 212 215 218 222 225 228 231 231 231 232 234 235 234 230 226 225 227 231 231 226 219 214 207 205 218 228 184 163 178 227 243 231 211 210 221 223 227 232 233 236 244 247 243 245 254 259
45 45 57 74 95 121 140 146 146 149 153 156 159 163 164 166 172 182 192 199 204 209 214 223 231 222 187 172 178 189 195 197 198 196 195 198 202 203 204 206 210 215 219 222 225 226 221 217 218 221 219 213 205 201 198 192 182 177 181 178 167 157 162 179 176 166 172 185 204 214 212 214 225 232 235 238 242 245 248 255 257 254 255 258 259
53 50 52 55 62 79 100 116 128 139 147 151 155 162 167 172 179 190 200 207 213 217 217 215 203 179 165 162 167 174 177 181 186 188 189 191 192 193 198 202 206 210 211 209 208 209 210 211 211 208 203 197 194 194 188 170 153 153 170 180 175 170 175 184 184 179 179 179 172 174 204 241 251 249 253 262 269 272 277 282 286 288 288 286 283
58 54 53 54 57 65 77 90 100 111 124 139 151 159 166 174 180 185 190 192 193 194 193 187 177 170 167 168 173 177 180 184 186 187 189 189 188 188 191 195 196 197 199 199 198 200 205 207 203 196 193 194 195 194 187 176 173 177 181 181 179 180 184 191 193 192 190 188 181 172 167 186 235 252 270 284 281 277 280 289 292 289 288 293 298
56 57 54 53 55 60 67 76 83 88 95 111 128 136 144 156 163 168 172 174 174 174 174 171 168 167 167 170 174 178 183 188 192 192 192 192 191 190 190 190 191 191 192 195 198 200 201 201 197 195 196 196 195 191 183 178 181 187 186 185 189 190 189 192 202 208 209 207 201 190 177 171 180 190 213 267 270 264 269 281 284 279 276 282 294
40 48 53 54 55 57 61 67 74 80 84 91 101 111 122 135 144 149 155 159 161 164 166 167 168 168 168 169 172 174 177 182 190 195 197 196 195 192 186 184 186 188 189 192 195 195 193 189 188 190 192 191 188 187 186 184 187 192 192 192 196 198 198 202 211 215 213 210 209 212 215 207 190 182 219 288 268 259 270 280 286 287 284 286 296
28 32 40 49 55 58 59 60 64 72 81 89 97 105 114 124 133 139 144 148 152 156 160 164 168 172 173 174 178 179 177 176 177 176 175 177 178 176 172 170 172 173 171 169 167 165 164 166 169 172 174 174 175 178 181 184 187 191 190 187 190 196 201 205 205 201 200 203 207 213 220 213 194 194 281 273 251 252 265 261 258 264 268 271 281
31 29 31 39 50 58 61 60 59 62 69 83 98 109 116 122 127 132 138 144 149 153 155 157 161 164 165 165 164 161 155 153 152 150 150 153 156 159 162 164 165 162 159 155 152 152 156 160 163 166 169 173 177 181 184 185 186 185 182 180 183 189 194 198 201 202 209 217 221 221 218 209 197 203 231 239 233 238 248 248 248 254 257 256 259
35 41 42 43 48 57 63 67 67 64 63 72 90 105 114 120 124 129 135 142 145 148 153 155 155 155 155 153 149 146 144 144 145 146 148 151 154 156 159 159 158 157 157 157 157 159 162 165 167 170 173 176 179 180 178 175 175 177 180 184 189 194 200 207 216 222 226 232 237 238 238 232 224 226 236 240 237 239 245 250 255 260 262 263 267
51 63 64 60 58 62 67 70 72 70 67 68 76 90 106 118 125 129 134 138 141 143 146 150 151 151 152 153 152 151 151 153 154 153 152 152 151 153 155 157 157 159 160 159 157 157 158 156 154 155 158 161 164 166 165 164 168 176 184 189 195 202 211 216 222 230 237 242 248 252 255 255 253 254 259 262 261 262 266 268 270 271 273 276 279
84 89 88 83 79 80 80 78 73 71 69 68 70 79 94 108 117 125 132 137 140 142 144 148 151 153 155 156 157 158 160 161 161 160 158 156 156 156 157 157 156 155 153 148 144 144 144 143 142 145 148 151 155 160 164 167 170 175 183 196 210 222 231 236 243 251 258 263 268 271 272 274 276 277 280 283 285 285 285 285 284 284 286 287 286
Height
1510 1512 1514 1517 1520 1523 1527 1530 1533 1536 1539 1542 1544 1546 1549 1551 1554 1556 1558 1561 1563 1565 1567 1567 1569 1570 1572 1574 1575 1577 1578 1580 1581 1582 1584 1585 1586 1587 1588 1589 1590 1591 1592 1593 1594 1595 1595 1596 1596 1597 1597 1598 1598 1599 1599 1599 1599 1599 1599 1600 1600 1600 1600 1600 1599 1598 1599 1599 1599 1598 1598 1597 1596 1596 1595 1594 1593 1592 1591 1590 1589 1587 1586 1585 1583
1506 1508 1511 1514 1517 1519 1523 1526 1530 1533 1535 1538 1541 1543 1546 1548 1551 1554 1556 1558 1560 1562 1564 1565 1567 1568 1570 1571 1573 1575 1576 1578 1579 1580 1582 1583 1584 1586 1586 1587 1588 1589 1591 1592 1592 1593 1594 1594 1595 1596 1596 1596 1597 1597 1598 1598 1598 1598 1598 1598 1599 1599 1599 1599 1598 1597 1597 1597 1597 1596 1596 1595 1594 1594 1593 1592 1592 1591 1589 1588 1587 1585 1584 1583 1581
1502 1504 1508 1511 1513 1516 1519 1522 1526 1529 1532 1535 1537 1540 1542 1545 1548 1550 1553 1555 1557 1559 1561 1562 1564 1566 1567 1569 1571 1573 1574 1575 1577 1578 1579 1581 1582 1583 1585 1585 1586 1587 1589 1590 1591 1592 1592 1593 1593 1594 1595 1595 1595 1596 1596 1596 1597 1598 1598 1598 1598 1598 1598 1598 1597 1596 1595 1595 1595 1594 1594 1593 1593 1592 1592 1591 1590 1589 1587 1586 1585 1584 1583 1582 1580
1499 1501 1504 1507 1510 1513 1516 1519 1522 1525 1528 1531 1534 1537 1539 1542 1545 1547 1550 1552 1554 1556 1558 1559 1561 1563 1565 1566 1568 1570 1572 1573 1574 1576 1577 1579 1580 1582 1583 1583 1584 1585 1586 1588 1589 1590 1590 1591 1592 1592 1593 1593 1593 1594 1594 1595 1595 1596 1596 1597 1597 1597 1597 1597 1597 1596 1595 1594 1593 1593 1592 1591 1590 1590 1589 1588 1587 1586 1584 1583 1582 1582 1581 1580 1579
1497 1498 1501 1504 1507 1510 1513 1516 1518 1521 1524 1527 1530 1534 1536 1539 1541 1544 1546 1549 1551 1553 1555 1556 1558 1560 1562 1564 1565 1567 1569 1570 1572 1573 1575 1576 1578 1580 1581 1582 1582 1583 1584 1586 1587 1588 1588 1589 1590 1591 1591 1591 1591 1592 1592 1593 1593 1593 1594 1594 1595 1595 1595 1595 1595 1595 1594 1592 1591 1591 1590 1589 1588 1588 1587 1586 1584 1583 1582 1582 1581 1580 1580 1579 1577
1494 1495 1498 1501 1503 1506 1508 1512 1514 1517 1521 1524 1527 1530 1533 1536 1538 1540 1543 1546 1548 1550 1551 1553 1555 1557 1559 1561 1563 1564 1566 1568 1569 1571 1572 1574 1576 1577 1579 1580 1581 1581 1582 1583 1584 1585 1586 1587 1588 1588 1589 1589 1589 1590 1590 1591 1591 1592 1592 1592 1593 1593 1593 1593 1593 1593 1592 1591 1590 1589 1588 1587 1586 1586 1585 1585 1583 1582 1581 1580 1579 1578 1578 1577 1575
1492 1493 1494 1497 1499 1501 1504 1507 1510 1514 1517 1521 1524 1527 1530 1533 1535 1537 1540 1543 1545 1547 1548 1550 1552 1554 1556 1558 1560 1562 1563 1565 1566 1568 1570 1571 1573 1575 1576 1577 1579 1579 1580 1581 1582 1583 1583 1584 1585 1586 1586 1587 1587 1588 1588 1589 1589 1590 1590 1591 1591 1591 1591 1591 1591 1591 1590 1589 1588 1587 1586 1585 1585 1584 1584 1584 1583 1581 1579 1578 1577 1577 1576 1575 1574
1489 1489 1491 1493 1495 1497 1500 1504 1507 1511 1514 1518 1522 1524 1527 1530 1532 1534 1536 1539 1542 1544 1545 1547 1549 1551 1553 1555 1557 1559 1560 1562 1564 1565 1567 1569 1570 1572 1573 1575 1576 1577 1578 1578 1579 1580 1581 1582 1582 1583 1584 1584 1585 1586 1586 1587 1588 1588 1589 1589 1589 1589 1589 1589 1589 1589 1589 1588 1587 1586 1585 1584 1583 1583 1583 1582 1581 1580 1579 1577 1575 1575 1575 1574 1573
1486 1486 1488 1490 1491 1493 1497 1501 1504 1508 1511 1514 1518 1521 1524 1527 1530 1531 1533 1535 1538 1541 1543 1544 1546 1548 1550 1551 1554 1556 1557 1559 1560 1562 1564 1566 1568 1569 1570 1571 1572 1573 1575 1575 1576 1577 1578 1579 1580 1580 1581 1582 1583 1584 1584 1585 1586 1586 1587 1587 1587 1587 1587 1587 1587 1587 1587 1586 1585 1585 1583 1582 1581 1581 1581 1581 1580 1579 1578 1577 1575 1573 1573 1572 1571
1483 1484 1485 1487 1489 1492 1495 1498 1501 1504 1507 1510 1514 1518 1521 1524 1527 1529 1530 1532 1535 1537 1540 1542 1543 1545 1547 1548 1550 1552 1554 1555 1557 1559 1561 1563 1565 1566 1567 1568 1569 1570 1571 1572 1573 1574 1575 1576 1578 1579 1579 1580 1580 1581 1582 1583 1584 1584 1585 1585 1585 1585 1585 1585 1585 1584 1584 1584 1583 1583 1582 1580 1579 1579 1579 1579 1579 1578 1577 1575 1573 1572 1571 1569 1567
1479 1481 1483 1485 1488 1490 1493 1495 1498 1501 1504 1507 1510 1514 1518 1521 1524 1526 1528 1529 1532 1534 1537 1539 1540 1542 1543 1545 1547 1549 1550 1552 1553 1556 1558 1560 1562 1564 1564 1565 1566 1567 1569 1569 1570 1572 1573 1574 1575 1577 1578 1578 1578 1579 1580 1581 1582 1582 1583 1583 1583 1583 1583 1582 1582 1582 1582 1581 1581 1581 1580 1578 1577 1578 1577 1577 1577 1576 1575 1574 1572 1570 1568 1566 1564
1477 1479 1481 1485 1487 1489 1491 1493 1496 1498 1501 1503 1506 1510 1514 1517 1520 1523 1525 1527 1529 1531 1534 1536 1537 1539 1541 1542 1544 1545 1547 1548 1550 1553 1555 1557 1559 1561 1562 1563 1563 1564 1566 1566 1568 1569 1570 1571 1573 1574 1575 1576 1577 1577 1578 1578 1579 1580 1580 1581 1581 1581 1581 1580 1580 1579 1579 1579 1578 1578 1578 1577 1576 1575 1575 1575 1574 1573 1572 1571 1570 1568 1566 1564 1562
1475 1477 1479 1482 1485 1487 1489 1491 1493 1495 1497 1500 1503 1506 1510 1513 1516 1519 1522 1524 1526 1529 1531 1533 1535 1537 1538 1539 1540 1542 1544 1545 1547 1549 1552 1554 1556 1558 1559 1560 1561 1561 1562 1564 1565 1566 1567 1569 1570 1571 1572 1573 1574 1575 1575 1576 1577 1577 1578 1578 1578 1578 1578 1578 1577 1577 1577 1576 1575 1575 1575 1575 1574 1573 1573 1572 1571 1570 1569 1568 1568 1566 1564 1562 1560
1472 1473 1476 1479 1481 1484 1486 1488 1490 1493 1495 1498 1501 1503 1506 1510 1513 1516 1519 1521 1523 1525 1528 1530 1532 1534 1536 1537 1538 1539 1541 1542 1544 1546 1549 1551 1553 1555 1556 1557 1558 1559 1560 1561 1562 1563 1564 1566 1567 1568 1570 1571 1572 1572 1573 1573 1574 1574 1575 1575 1575 1575 1575 1575 1575 1574 1574 1573 1571 1571 1572 1572 1571 1571 1571 1570 1569 1567 1566 1565 1565 1563 1562 1560 1559
1468 1470 1472 1475 1478 1480 1483 1485 1487 1490 1492 1495 1498 1500 1503 1506 1509 1513 1515 1518 1520 1522 1525 1527 1529 1531 1533 1535 1536 1537 1539 1540 1541 1543 1546 1548 1550 1552 1553 1555 1556 1557 1558 1558 1559 1560 1561 1563 1564 1565 1566 1567 1569 1570 1570 1570 1571 1571 1571 1571 1571 1571 1571 1571 1571 1571 1570 1569 1568 1568 1568 1569 1569 1568 1568 1567 1566 1565 1564 1563 1562 1561 1559 1558 1557
1465 1466 1469 1471 1473 1476 1478 1481 1484 1487 1489 1492 1494 1497 1499 1502 1506 1509 1512 1515 1517 1519 1521 1524 1526 1528 1530 1532 1534 1535 1536 1538 1539 1540 1542 1545 1547 1548 1550 1551 1553 1554 1555 1556 1557 1558 1559 1560 1560 1561 1562 1564 1565 1566 1567 1568 1568 1568 1567 1567 1567 1567 1567 1567 1567 1567 1566 1566 1565 1565 1565 1565 1565 1565 1565 1565 1564 1563 1562 1561 1560 1559 1558 1556 1554
1461 1462 1464 1466 1469 1471 1474 1477 1480 1483 1486 1488 1490 1493 1496 1499 1503 1506 1509 1512 1514 1515 1517 1520 1522 1524 1526 1528 1530 1532 1534 1535 1537 1538 1539 1541 1543 1545 1547 1548 1549 1550 1552 1553 1554 1555 1556 1556 1557 1558 1559 1560 1561 1562 1564 1564 1564 1564 1564 1564 1564 1563 1563 1563 1563 1563 1562 1562 1562 1562 1562 1563 1562 1562 1562 1562 1561 1561 1560 1559 1558 1558 1556 1554 1552
1457 1458 1459 1462 1464 1467 1470 1473 1477 1479 1482 1484 1487 1489 1492 1496 1499 1502 1505 1508 1510 1512 1514 1516 1519 1521 1523 1525 1526 1529 1531 1532 1534 1535 1536 1538 1540 1542 1543 1545 1545 1547 1548 1549 1550 1551 1552 1553 1554 1555 1555 1556 1557 1559 1560 1560 1560 1560 1561 1561 1561 1560 1560 1561 1561 1560 1560 1560 1559 1559 1559 1560 1560 1559 1559 1559 1559 1558 1557 1556 1556 1556 1554 1552 1551
1453 1453 1455 1458 1461 1464 1467 1470 1473 1476 1478 1481 1483 1486 1489 1492 1496 1499 1502 1505 1508 1510 1512 1514 1516 1518 1520 1521 1523 1525 1527 1529 1530 1532 1533 1535 1537 1538 1540 1541 1542 1543 1544 1546 1547 1548 1548 1549 1550 1551 1552 1553 1554 1555 1556 1556 1556 1557 1557 1558 1557 1556 1557 1558 1558 1558 1558 1557 1557 1557 1556 1557 1557 1557 1556 1556 1556 1555 1555 1554 1554 1553 1552 1550 1549
1448 1451 1453 1456 1459 1462 1464 1466 1469 1472 1474 1477 1480 1483 1486 1489 1492 1496 1499 1502 1505 1507 1509 1511 1512 1515 1517 1518 1520 1521 1523 1525 1527 1528 1530 1532 1533 1535 1536 1537 1538 1539 1541 1542 1543 1544 1545 1545 1546 1547 1548 1549 1551 1551 1552 1552 1552 1553 1554 1554 1553 1553 1554 1555 1555 1556 1555 1555 1554 1554 1553 1553 1553 1553 1553 1553 1553 1553 1552 1552 1551 1551 1549 1548 1547
1448 1450 1452 1454 1457 1459 1461 1463 1466 1469 1472 1475 1477 1480 1482 1485 1488 1491 1495 1498 1501 1504 1506 1508 1510 1511 1513 1515 1516 1517 1519 1521 1523 1524 1526 1528 1530 1531 1532 1533 1534 1536 1537 1538 1539 1539 1540 1541 1542 1543 1544 1546 1547 1547 1548 1549 1549 1550 1550 1550 1550 1551 1551 1552 1552 1552 1552 1552 1551 1551 1550 1550 1550 1549 1550 1550 1549 1550 1550 1549 1549 1548 1547 1546 1545
1446 1448 1449 1451 1454 1456 1458 1461 1463 1466 1469 1471 1473 1475 1478 1481 1484 1487 1490 1494 1496 1499 1502 1505 1507 1508 1509 1511 1513 1514 1516 1517 1518 1520 1522 1524 1526 1527 1528 1529 1531 1532 1533 1533 1534 1535 1536 1537 1538 1539 1540 1542 1543 1543 1544 1545 1545 1545 1546 1546 1547 1547 1547 1547 1548 1548 1548 1548 1548 1548 1547 1547 1546 1546 1547 1547 1547 1548 1548 1546 1545 1545 1544 1543 1543
1443 1445 1446 1449 1451 1454 1456 1458 1461 1463 1466 1467 1469 1471 1474 1478 1480 1483 1486 1490 1493 1495 1498 1501 1503 1505 1506 1508 1510 1511 1513 1514 1515 1516 1519 1521 1522 1524 1525 1526 1527 1528 1529 1529 1530 1531 1533 1533 1534 1535 1536 1537 1538 1539 1540 1540 1541 1541 1542 1543 1543 1543 1543 1543 1543 1543 1543 1543 1543 1543 1543 1543 1543 1543 1543 1544 1545 1546 1545 1544 1543 1543 1542 1542 1541
1440 1442 1443 1446 1448 1451 1454 1456 1458 1460 1462 1464 1465 1468 1470 1474 1477 1479 1482 1485 1489 1491 1494 1497 1499 1501 1503 1505 1506 1508 1510 1511 1512 1513 1515 1517 1518 1520 1521 1523 1524 1525 1525 1526 1527 1528 1529 1530 1531 1532 1532 1533 1534 1534 1535 1536 1536 1537 1538 1539 1539 1539 1538 1538 1538 1538 1538 1538 1538 1538 1538 1539 1540 1540 1541 1542 1542 1542 1542 1542 1541 1541 1541 1540 1539
1436 1438 1440 1442 1445 1448 1451 1453 1455 1457 1459 1460 1462 1464 1466 1469 1473 1475 1478 1481 1484 1487 1490 1492 1495 1497 1499 1501 1503 1504 1506 1508 1508 1509 1511 1513 1514 1516 1517 1518 1520 1520 1521 1523 1524 1525 1525 1526 1527 1528 1529 1530 1530 1530 1531 1531 1532 1533 1534 1535 1535 1535 1534 1534 1534 1534 1533 1533 1534 1534 1535 1536 1536 1537 1539 1539 1539 1538 1539 1539 1539 1539 1538 1538 1537
1433 1435 1437 1439 1442 1445 1448 1450 1451 1454 1456 1457 1458 1460 1463 1465 1468 1471 1474 1477 1480 1483 1485 1488 1490 1493 1495 1497 1499 1501 1503 1504 1505 1506 1508 1509 1510 1511 1513 1514 1516 1517 1518 1520 1521 1521 1522 1523 1524 1525 1526 1527 1527 1527 1528 1529 1529 1530 1531 1531 1531 1531 1531 1531 1531 1531 1530 1530 1531 1531 1532 1533 1534 1535 1536 1536 1535 1535 1536 1536 1536 1536 1535 1535 1534
1430 1432 1434 1436 1439 1442 1444 1445 1447 1449 1452 1453 1455 1458 1459 1462 1464 1466 1469 1472 1475 1478 1481 1483 1485 1488 1490 1493 1495 1497 1499 1501 1501 1502 1503 1504 1506 1507 1509 1511 1512 1514 1515 1516 1517 1518 1518 1520 1521 1522 1523 1523 1524 1525 1525 1526 1527 1527 1527 1527 1528 1528 1528 1528 1528 1528 1528 1528 1529 1529 1529 1530 1531 1531 1531 1532 1532 1532 1533 1533 1533 1533 1533 1532 1532
1427 1429 1431 1433 1436 1438 1440 1441 1443 1445 1447 1449 1451 1453 1455 1457 1459 1461 1463 1466 1470 1473 1476 1478 1480 1483 1485 1488 1491 1493 1495 1496 1497 1497 1498 1500 1502 1504 1505 1507 1508 1510 1511 1513 1514 1515 1516 1516 1517 1518 1519 1520 1521 1521 1522 1522 1523 1523 1523 1524 1524 1525 1525 1525 1524 1524 1525 1525 1526 1527 1527 1528 1528 1528 1528 1528 1529 1530 1531 1531 1531 1532 1532 1531 1530
1424 1426 1428 1430 1432 1435 1436 1437 1439 1441 1443 1445 1447 1449 1450 1452 1455 1457 1460 1463 1465 1468 1471 1474 1476 1479 1482 1485 1487 1488 1489 1491 1493 1494 1495 1497 1499 1501 1502 1504 1505 1507 1509 1511 1512 1513 1513 1513 1513 1514 1515 1516 1517 1517 1518 1518 1519 1519 1520 1520 1521 1522 1522 1521 1521 1521 1522 1523 1524 1524 1525 1525 1526 1526 1526 1526 1527 1528 1528 1528 1529 1530 1530 1529 1529
1421 1422 1424 1426 1429 1431 1432 1433 1435 1437 1439 1440 1441 1443 1446 1448 1451 1454 1456 1459 1462 1465 1468 1471 1473 1477 1480 1481 1483 1484 1485 1487 1490 1492 1493 1494 1496 1498 1500 1502 1503 1504 1506 1508 1509 1509 1509 1509 1509 1510 1511 1512 1512 1513 1514 1515 1515 1516 1516 1517 1518 1519 1518 1518 1518 1519 1519 1520 1521 1522 1522 1523 1523 1523 1524 1525 1526 1526 1526 1526 1526 1527 1528 1527 1527
1417 1418 1420 1422 1424 1426 1428 1428 1430 1432 1434 1435 1435 1438 1441 1444 1447 1450 1452 1455 1459 1462 1465 1468 1471 1474 1477 1478 1479 1481 1483 1485 1488 1490 1491 1492 1494 1496 1498 1499 1500 1502 1503 1504 1505 1505 1504 1505 1505 1506 1507 1508 1509 1510 1511 1512 1513 1514 1514 1514 1515 1515 1515 1515 1516 1517 1517 1518 1519 1519 1520 1520 1521 1521 1522 1523 1523 1524 1525 1525 1524 1524 1524 1525 1525
1413 1415 1417 1419 1420 1422 1424 1424 1426 1428 1429 1430 1431 1434 1436 1439 1442 1446 1449 1452 1456 1459 1462 1465 1468 1471 1473 1475 1477 1479 1481 1483 1485 1487 1488 1490 1492 1494 1495 1497 1498 1499 1500 1501 1501 1501 1501 1502 1502 1503 1504 1505 1506 1507 1509 1510 1511 1512 1512 1512 1512 1512 1513 1513 1514 1515 1515 1516 1516 1517 1517 1518 1519 1520 1522 1522 1522 1523 1524 1524 1523 1523 1523 1523 1523
1410 1412 1415 1416 1416 1417 1419 1420 1422 1424 1425 1425 1427 1429 1432 1434 1437 1441 1445 1449 1453 1456 1460 1462 1465 1468 1471 1473 1475 1477 1479 1481 1483 1485 1486 1488 1490 1491 1493 1495 1496 1497 1498 1498 1499 1499 1499 1500 1500 1501 1501 1502 1503 1505 1506 1507 1508 1509 1510 1510 1510 1510 1511 1512 1512 1513 1513 1513 1514 1514 1515 1516 1517 1519 1520 1520 1521 1522 1523 1522 1522 1523 1522 1522 1522
1407 1408 1410 1412 1412 1413 1414 1417 1420 1422 1422 1423 1426 1428 1430 1432 1434 1437 1440 1444 1449 1453 1456 1460 1462 1465 1468 1470 1472 1475 1477 1479 1480 1482 1484 1486 1487 1489 1491 1492 1493 1494 1495 1496 1497 1497 1498 1498 1499 1499 1500 1501 1502 1503 1503 1504 1505 1506 1507 1508 1508 1508 1509 1509 1510 1510 1511 1511 1512 1512 1512 1514 1516 1518 1518 1518 1519 1521 1522 1522 1522 1522 1522 1521 1521
1402 1403 1404 1406 1409 1412 1414 1416 1417 1418 1419 1421 1426 1430 1432 1433 1434 1435 1438 1441 1446 1450 1453 1457 1460 1463 1466 1468 1470 1472 1474 1476 1478 1480 1482 1483 1485 1487 1488 1489 1490 1491 1492 1493 1494 1495 1495 1496 1497 1498 1499 1500 1500 1500 1501 1501 1502 1503 1504 1504 1504 1505 1505 1506 1506 1507 1508 1509 1509 1510 1511 1513 1515 1517 1518 1518 1519 1521 1523 1523 1522 1522 1521 1520 1520
1402 1403 1405 1409 1413 1416 1417 1417 1416 1415 1416 1419 1424 1430 1433 1434 1434 1435 1438 1441 1445 1448 1451 1454 1457 1460 1463 1465 1468 1470 1472 1474 1476 1478 1479 1481 1483 1484 1485 1486 1487 1487 1489 1490 1491 1491 1492 1493 1494 1495 1496 1497 1497 1497 1498 1498 1499 1500 1500 1501 1501 1501 1502 1502 1502 1504 1506 1507 1507 1508 1510 1512 1513 1515 1516 1516 1518 1520 1521 1522 1522 1521 1520 1520 1518
1402 1402 1404 1408 1413 1416 1419 1419 1418 1417 1417 1418 1422 1428 1434 1438 1438 1438 1439 1442 1444 1446 1449 1452 1455 1458 1461 1463 1465 1467 1469 1472 1474 1475 1477 1479 1480 1481 1483 1483 1484 1485 1486 1487 1488 1488 1489 1490 1491 1492 1493 1493 1494 1494 1495 1495 1496 1496 1497 1497 1498 1498 1499 1499 1500 1501 1503 1504 1505 1506 1507 1508 1509 1510 1511 1512 1514 1516 1518 1520 1520 1520 1519 1518 1516
1401 1400 1402 1406 1412 1416 1420 1421 1420 1419 1420 1419 1420 1424 1431 1436 1439 1441 1441 1441 1442 1444 1447 1451 1454 1456 1458 1460 1462 1465 1467 1469 1471 1473 1474 1476 1477 1478 1479 1480 1481 1482 1483 1484 1485 1485 1486 1487 1488 1489 1489 1490 1490 1491 1491 1492 1493 1493 1494 1494 1495 1496 1496 1498 1498 1500 1501 1503 1503 1504 1505 1506 1506 1507 1508 1509 1511 1513 1516 1517 1518 1518 1517 1516 1514
1403 1403 1404 1407 1410 1415 1420 1422 1420 1419 1418 1418 1418 1420 1424 1428 1434 1440 1441 1441 1441 1443 1445 1448 1450 1452 1454 1457 1460 1462 1464 1466 1468 1470 1471 1472 1473 1474 1476 1477 1478 1479 1480 1481 1482 1483 1484 1484 1485 1485 1486 1487 1487 1488 1488 1489 1490 1490 1490 1491 1493 1494 1495 1496 1497 1499 1500 1502 1504 1505 1506 1506 1507 1507 1508 1508 1510 1512 1514 1515 1515 1515 1514 1513 1512
1404 1404 1404 1405 1407 1411 1415 1418 1418 1416 1414 1415 1417 1419 1420 1423 1429 1435 1438 1438 1439 1440 1442 1445 1448 1450 1452 1455 1457 1459 1461 1463 1465 1467 1468 1468 1469 1471 1472 1474 1476 1477 1477 1478 1479 1480 1481 1482 1482 1483 1483 1484 1485 1486 1486 1487 1488 1488 1488 1489 1491 1492 1494 1495 1497 1499 1501 1503 1504 1506 1506 1507 1507 1507 1507 1508 1509 1511 1511 1512 1511 1511 1510 1509 1509
1406 1405 1404 1404 1406 1407 1408 1410 1412 1412 1413 1414 1416 1417 1418 1420 1425 1430 1434 1435 1436 1438 1441 1443 1446 1448 1450 1452 1454 1455 1457 1459 1461 1462 1464 1465 1466 1468 1470 1472 1473 1474 1475 1476 1477 1478 1479 1480 1480 1481 1482 1483 1484 1485 1486 1487 1488 1488 1488 1489 1490 1492 1494 1495 1496 1498 1500 1502 1504 1505 1506 1506 1506 1506 1507 1507 1508 1509 1509 1509 1509 1508 1507 1506 1506
1409 1408 1406 1406 1406 1404 1403 1405 1408 1410 1412 1414 1415 1415 1416 1418 1422 1427 1431 1434 1436 1438 1440 1442 1444 1446 1447 1449 1451 1452 1454 1456 1458 1460 1462 1463 1465 1467 1468 1470 1471 1472 1473 1474 1475 1476 1477 1477 1478 1479 1480 1481 1482 1484 1485 1486 1487 1487 1488 1488 1489 1491 1493 1494 1495 1497 1499 1500 1502 1503 1504 1505 1505 1505 1505 1506 1506 1506 1506 1506 1506 1506 1505 1505 1505
1411 1411 1410 1409 1407 1404 1403 1405 1408 1411 1413 1415 1416 1416 1416 1417 1421 1426 1430 1433 1435 1437 1438 1440 1442 1443 1445 1447 1449 1451 1454 1456 1458 1459 1461 1462 1463 1465 1467 1468 1469 1470 1471 1472 1473 1474 1475 1475 1476 1477 1478 1479 1480 1481 1483 1484 1484 1484 1485 1486 1487 1489 1490 1491 1493 1496 1497 1498 1500 1501 1503 1504 1503 1504 1504 1504 1504 1504 1504 1504 1504 1504 1504 1504 1504
1413 1413 1413 1412 1410 1408 1407 1408 1410 1412 1414 1416 1418 1418 1418 1419 1422 1425 1429 1431 1433 1434 1436 1438 1440 1442 1444 1446 1448 1450 1452 1455 1456 1458 1459 1461 1462 1464 1465 1467 1468 1469 1470 1470 1471 1472 1473 1474 1475 1476 1477 1478 1480 1481 1482 1483 1483 1483 1484 1485 1487 1488 1489 1491 1493 1494 1496 1497 1498 1499 1500 1501 1502 1503 1503 1503 1503 1503 1503 1503 1503 1503 1503 1503 1503
1416 1416 1416 1415 1413 1412 1412 1412 1414 1415 1417 1418 1419 1420 1421 1422 1423 1425 1427 1429 1431 1433 1434 1436 1439 1441 1443 1445 1446 1448 1450 1452 1455 1457 1459 1460 1462 1463 1464 1466 1467 1468 1468 1469 1470 1471 1472 1473 1474 1475 1476 1478 1479 1481 1482 1483 1483 1484 1485 1486 1487 1488 1489 1490 1492 1493 1494 1495 1496 1497 1497 1498 1499 1500 1501 1501 1501 1502 1502 1501 1501 1501 1501 1501 1501
1419 1418 1417 1416 1416 1416 1416 1417 1417 1418 1420 1421 1421 1422 1423 1424 1425 1426 1428 1429 1431 1433 1434 1436 1439 1441 1443 1445 1446 1448 1449 1451 1454 1456 1459 1460 1462 1463 1464 1465 1466 1467 1468 1469 1470 1471 1472 1473 1474 1475 1477 1478 1480 1481 1482 1482 1483 1484 1485 1486 1487 1488 1488 1489 1491 1492 1493 1494 1495 1496 1496 1497 1497 1498 1499 1499 1499 1499 1499 1499 1499 1499 1499 1499 1499
1420 1420 1420 1420 1419 1419 1420 1421 1421 1421 1423 1424 1425 1426 1426 1427 1428 1428 1429 1431 1432 1434 1435 1437 1439 1441 1444 1446 1447 1449 1450 1451 1453 1455 1458 1460 1462 1464 1465 1466 1466 1466 1467 1468 1469 1471 1472 1473 1474 1476 1477 1479 1480 1480 1481 1482 1483 1484 1484 1485 1486 1487 1488 1489 1490 1491 1492 1493 1494 1494 1495 1495 1496 1496 1496 1496 1496 1496 1496 1497 1496 1496 1497 1497 1497
1421 1421 1422 1422 1422 1421 1421 1423 1424 1425 1426 1428 1428 1429 1430 1430 1430 1431 1431 1432 1434 1435 1436 1438 1441 1442 1444 1446 1448 1450 1451 1453 1455 1457 1459 1461 1463 1464 1465 1465 1466 1466 1467 1468 1470 1471 1472 1473 1475 1476 1478 1479 1479 1480 1481 1482 1483 1483 1484 1485 1486 1486 1487 1489 1489 1490 1491 1492 1492 1492 1492 1492 1493 1493 1493 1493 1493 1493 1493 1494 1494 1494 1495 1495 1495
1423 1422 1423 1424 1424 1423 1423 1425 1427 1429 1431 1432 1432 1432 1433 1434 1434 1435 1435 1435 1435 1436 1437 1440 1442 1443 1445 1447 1449 1451 1452 1455 1457 1459 1460 1462 1464 1465 1465 1466 1467 1467 1468 1469 1471 1472 1473 1475 1476 1477 1477 1478 1479 1480 1481 1482 1482 1483 1484 1485 1485 1486 1487 1488 1488 1489 1490 1490 1490 1490 1491 1491 1491 1491 1491 1492 1492 1492 1492 1492 1493 1493 1493 1493 1493
1425 1425 1425 1426 1426 1427 1427 1429 1430 1432 1434 1435 1435 1435 1435 1437 1438 1439 1439 1438 1439 1439 1439 1441 1443 1445 1447 1448 1450 1452 1454 1455 1457 1459 1461 1463 1464 1465 1466 1467 1468 1469 1469 1470 1471 1472 1474 1475 1476 1477 1478 1478 1479 1480 1481 1482 1482 1483 1483 1484 1485 1485 1486 1487 1488 1488 1488 1488 1488 1489 1489 1489 1489 1489 1490 1490 1491 1490 1490 1491 1491 1491 1491 1491 1490
1426 1426 1427 1427 1428 1429 1430 1431 1433 1435 1437 1437 1437 1437 1438 1439 1441 1442 1443 1442 1441 1441 1441 1442 1444 1447 1449 1450 1452 1453 1455 1457 1459 1460 1462 1463 1465 1465 1466 1467 1468 1469 1470 1471 1472 1473 1474 1475 1476 1477 1478 1479 1480 1480 1481 1482 1482 1482 1483 1483 1484 1485 1485 1486 1486 1486 1486 1486 1487 1487 1487 1487 1487 1487 1487 1488 1488 1488 1488 1488 1488 1488 1488 1488 1487